Location: Newark
(45.5000°N, 11.4167°E)
Time: 13:09:19
(UTC+00:00)

Vanguard 2 - Pass Details

Date: 24 August 2019
Orbit: 554 x 2937 km, 32.9° (Epoch: 22 September)

Event Time Altitude Azimuth Distance (km) Brightness Sun altitude
Rises 12:05:52 0° 232° (SW) 3,298 11.2 54.0°
Reaches altitude 10° 12:08:15 10° 220° (SW) 2,590 11.0 53.9°
Maximum altitude 12:13:34 29° 161° (SSE) 2,038 10.6 53.5°
Drops below altitude 10° 12:21:30 10° 107° (ESE) 3,954 11.2 52.9°
Sets 12:26:08 0° 98° (E) 5,391 11.7 52.5°
